This is the latest recevied weather packets stored in our database for station/object KN6KDD. If no packets are shown the sender has not sent any weather packets the latest 10 day(s).
| Time | Temp. | Humidity | Pressure | Rain* | Wind** | Luminosity | Snow |
|---|---|---|---|---|---|---|---|
| 1777153074 | 11.67° C | 80% | 1348.2 hPa | 0 mm | - | 193 W/m² | - |
| 1777152771 | 12.22° C | 81% | 1348.1 hPa | 0 mm | - | 236 W/m² | - |
| 1777152468 | 11.67° C | 82% | 1348.2 hPa | 0 mm | - | 361 W/m² | - |
| 1777152165 | 11.67° C | 81% | 1348.1 hPa | 0 mm | - | 280 W/m² | - |
| 1777151859 | 11.67° C | 83% | 1348.1 hPa | 0 mm | - | 205 W/m² | - |
| 1777151555 | 11.67° C | 82% | 1348.1 hPa | 0 mm | - | 249 W/m² | - |
| 1777151251 | 11.11° C | 83% | 1347.9 hPa | 0 mm | - | 336 W/m² | - |
| 1777150947 | 11.11° C | 84% | 1348.1 hPa | 0 mm | - | 276 W/m² | - |
| 1777150641 | 11.11° C | 85% | 1348.2 hPa | 0 mm | - | 196 W/m² | - |
| 1777150339 | 11.11° C | 86% | 1348.3 hPa | 0 mm | - | 173 W/m² | - |
| 1777150036 | 11.67° C | 86% | 1348.5 hPa | 0 mm | - | 152 W/m² | - |
| 1777149731 | 11.67° C | 85% | 1348.5 hPa | 0 mm | - | 249 W/m² | - |
| 1777149429 | 11.11° C | 86% | 1348.6 hPa | 0 mm | - | 295 W/m² | - |
| 1777149124 | 11.11° C | 87% | 1348.5 hPa | 0 mm | - | 242 W/m² | - |
| 1777148818 | 10.56° C | 87% | 1348.5 hPa | 0 mm | - | 193 W/m² | - |
| 1777148516 | 10.56° C | 89% | 1348.5 hPa | 0 mm | - | 175 W/m² | - |
| 1777148212 | 10.56° C | 91% | 1348.3 hPa | 0 mm | - | 147 W/m² | - |
| 1777147908 | 10.56° C | 91% | 1348.5 hPa | 0 mm | - | 131 W/m² | - |
| 1777147605 | 10.56° C | 90% | 1348.5 hPa | 0 mm | - | 118 W/m² | - |
| 1777147305 | 10.56° C | 90% | 1348.6 hPa | 0 mm | - | 131 W/m² | - |
| 1777147001 | 10.56° C | 90% | 1348.6 hPa | 0 mm | - | 151 W/m² | - |
| 1777146697 | 10.56° C | 89% | 1348.6 hPa | 0 mm | - | 145 W/m² | - |
| 1777146397 | 10.56° C | 90% | 1348.5 hPa | 0 mm | - | 137 W/m² | - |
| 1777146095 | 10.56° C | 90% | 1348.7 hPa | 0 mm | - | 127 W/m² | - |
| 1777145790 | 10.56° C | 90% | 1348.8 hPa | 0 mm | - | 126 W/m² | - |
* Rain latest hour (hover to see other rain measurements)
** Current wind speed in m/s (hover to see current wind gust speed)